Tracking 18945 objects as of 20-Jan-2018
HD Live streaming from Space Station
objects crossing your sky now

FENGYUN 1C DEB

Track FENGYUN 1C DEB now!
10-day predictions


NORAD ID: 30314
Int'l Code: 1999-025AAB
Perigee: 813.1 km
Apogee: 1,032.9 km
Inclination: 98.4 °
Period: 103.3 minutes
Semi major axis: 7294 km
RCS: 0.0083 m2 (small)
Launch date: May 10, 1999
Source: People's Republic of China (PRC)
Launch site: Taiyaun Space Center, China (TSC)

Note: This is SATELLITE DEBRIS
aabbcc
Your satellite tracking list
Your tracking list is empty




NASA's NSSDC Master Catalog

Two Line Element Set (TLE):
1 30314U 99025AAB 18017.56455418 +.00000215 +00000-0 +17484-3 0  9996
2 30314 098.4089 055.2828 0150707 135.4628 225.8763 13.93645655558435
Source of the keplerian elements: AFSPC